DENPL EDFH-

Flight info

Callsign DENPL
Flight time N/A
Altitude
Route
Aircraft C152

Departure

Time 2026-04-30 17:41
Airport Frankfurt-Hahn Airport (EDFH)

Arrival

Time N/A
Airport -
Time Latitude Longitude Altitude Speed Heading
2026-04-30 17:39 49.95012 7.25435 2211 ft 99 kts 333°
2026-04-30 17:41 49.92238 7.19135 2805 ft 96 kts 209°
2026-04-30 17:42 49.91445 7.17539 2858 ft 107 kts 283°
2026-04-30 17:42 49.91600 7.16410 2731 ft 95 kts 325°
2026-04-30 17:43 49.91687 7.16617 2685 ft 53 kts 141°
2026-04-30 17:44 49.90634 7.18239 3029 ft 72 kts 120°
2026-04-30 17:44 49.90238 7.20574 3002 ft 81 kts 86°
2026-04-30 17:46 49.92708 7.24257 1925 ft 105 kts 41°
2026-04-30 17:47 49.95147 7.26361 2098 ft 96 kts 352°
2026-04-30 17:48 49.95230 7.22411 2671 ft 108 kts 218°
2026-04-30 17:48 49.93670 7.19899 3023 ft 108 kts 214°
2026-04-30 17:49 49.91693 7.16200 3235 ft 103 kts 205°
2026-04-30 17:50 49.89626 7.15121 3181 ft 74 kts 122°
2026-04-30 17:51 49.88673 7.17308 3013 ft 89 kts 86°
2026-04-30 17:52 49.89390 7.19821 2912 ft 86 kts 80°
2026-04-30 17:53 49.91895 7.23432 2190 ft 105 kts 38°
2026-04-30 17:54 49.93548 7.25107 1637 ft 29 kts 34°
2026-04-30 17:55 49.94445 7.25997 1622 ft 54 kts 29°
2026-04-30 17:56 49.94349 7.26510 1615 ft 0 kts 226°
2026-04-30 17:57 49.94350 7.26510 1615 ft 0 kts 226°
2026-04-30 17:59 49.94350 7.26511 1615 ft 0 kts 226°
2026-04-30 18:00 49.94346 7.26496 1615 ft 4 kts 278°
2026-04-30 18:00 49.94531 7.26224 1619 ft 0 kts 302°
2026-04-30 18:02 49.94561 7.26156 1615 ft 17 kts 307°
2026-04-30 18:02 49.94668 7.26206 1617 ft 40 kts 30°
2026-04-30 18:03 49.95186 7.27637 2090 ft 73 kts 123°
2026-04-30 18:04 49.93761 7.27406 2601 ft 109 kts 218°
2026-04-30 18:05 49.91602 7.23863 2690 ft 123 kts 219°
2026-04-30 18:06 49.91363 7.22570 2455 ft 97 kts 63°
2026-04-30 18:07 49.93040 7.24570 1734 ft 66 kts 42°
2026-04-30 18:08 49.94469 7.25958 2209 ft 87 kts 43°
2026-04-30 18:09 49.94186 7.27885 2454 ft 115 kts 214°
2026-04-30 18:10 49.91826 7.25116 2702 ft 111 kts 200°
2026-04-30 18:11 49.92554 7.24114 1822 ft 56 kts 42°
2026-04-30 18:11 49.93599 7.25131 1641 ft 44 kts 42°
2026-04-30 18:12 49.94690 7.26173 1937 ft 79 kts 46°
2026-04-30 18:13 49.94672 7.27459 2277 ft 84 kts 134°
2026-04-30 18:13 49.93117 7.26489 2610 ft 107 kts 211°
2026-04-30 18:14 49.91898 7.24774 2797 ft 122 kts 243°
2026-04-30 18:15 49.93092 7.24634 1701 ft 61 kts 44°
2026-04-30 18:15 49.93978 7.25511 1691 ft 65 kts 46°
2026-04-30 18:16 49.94738 7.26508 2010 ft 75 kts 104°
2026-04-30 18:16 49.93948 7.27093 2392 ft 97 kts 203°
2026-04-30 18:17 49.93381 7.26437 2439 ft 105 kts 208°
2026-04-30 18:17 49.92812 7.25809 2429 ft 101 kts 205°
2026-04-30 18:17 49.91688 7.24698 2600 ft 96 kts 202°
2026-04-30 18:18 49.91287 7.23703 2532 ft 118 kts 242°
2026-04-30 18:18 49.91541 7.22673 2358 ft 103 kts 358°
2026-04-30 18:18 49.92009 7.23199 2089 ft 84 kts 66°
2026-04-30 18:18 49.92360 7.23937 1892 ft 81 kts 46°
2026-04-30 18:19 49.92820 7.24384 1742 ft 74 kts 40°
2026-04-30 18:19 49.93277 7.24816 1695 ft 88 kts 42°
2026-04-30 18:19 49.93846 7.25385 1672 ft 102 kts 40°
2026-04-30 18:19 49.94431 7.25958 1836 ft 90 kts 40°
2026-04-30 18:20 49.94959 7.26449 2090 ft 85 kts 40°
2026-04-30 18:20 49.95477 7.26820 2355 ft 86 kts 20°
2026-04-30 18:20 49.96088 7.26466 2549 ft 103 kts 327°
2026-04-30 18:20 49.96594 7.25603 2692 ft 106 kts 319°
2026-04-30 18:21 49.97097 7.24795 2765 ft 107 kts 325°
2026-04-30 18:21 49.97621 7.23993 2924 ft 101 kts 322°
2026-04-30 18:21 49.98080 7.23238 3080 ft 99 kts 326°
2026-04-30 18:21 49.98587 7.22448 3169 ft 108 kts 324°
2026-04-30 18:22 49.99139 7.21645 3235 ft 113 kts 330°
2026-04-30 18:22 50.00263 7.19899 3370 ft 122 kts 322°
2026-04-30 18:22 50.00867 7.18973 3462 ft 125 kts 325°
2026-04-30 18:23 50.01538 7.18006 3323 ft 131 kts 328°
2026-04-30 18:23 50.02223 7.17168 3276 ft 121 kts 335°
2026-04-30 18:23 50.02892 7.16456 3238 ft 118 kts 335°
2026-04-30 18:23 50.03522 7.15643 3203 ft 115 kts 329°
2026-04-30 18:24 50.04758 7.14080 3116 ft 106 kts 334°
2026-04-30 18:24 50.05374 7.13617 3093 ft 97 kts 358°
2026-04-30 18:24 50.05947 7.13194 3206 ft 84 kts 294°
2026-04-30 18:25 50.05606 7.12629 3247 ft 82 kts 178°
2026-04-30 18:25 50.04575 7.13371 3230 ft 89 kts 119°
2026-04-30 18:25 50.04395 7.14269 3203 ft 90 kts 88°
2026-04-30 18:26 50.05186 7.15806 3141 ft 87 kts 54°
2026-04-30 18:26 50.05658 7.16412 3159 ft 90 kts 49°
2026-04-30 18:26 50.06132 7.16965 3191 ft 83 kts 50°
2026-04-30 18:27 50.07296 7.16969 3402 ft 112 kts 327°
2026-04-30 18:27 50.07683 7.15894 3442 ft 117 kts 281°
2026-04-30 18:28 50.06962 7.13891 3350 ft 109 kts 203°
2026-04-30 18:28 50.06600 7.12792 3345 ft 121 kts 247°
2026-04-30 18:28 50.06284 7.10209 3501 ft 123 kts 255°
2026-04-30 18:29 50.06129 7.08926 3566 ft 118 kts 242°
2026-04-30 18:29 50.04739 7.06116 3662 ft 107 kts 220°
2026-04-30 18:30 50.03876 7.04630 3820 ft 114 kts 212°
2026-04-30 18:30 50.02738 7.02946 4029 ft 115 kts 212°
2026-04-30 18:31 50.02172 7.02066 4125 ft 117 kts 214°
2026-04-30 18:31 50.01108 7.00141 4296 ft 116 kts 216°
2026-04-30 18:32 50.00028 6.98362 4466 ft 112 kts 212°
2026-04-30 18:32 49.99476 6.97529 4523 ft 107 kts 205°
2026-04-30 18:32 49.98285 6.96061 4647 ft 110 kts 203°
2026-04-30 18:33 49.97677 6.95354 4729 ft 108 kts 203°
2026-04-30 18:33 49.96477 6.93954 4872 ft 105 kts 202°
2026-04-30 18:33 49.95878 6.93317 4927 ft 105 kts 198°
2026-04-30 18:34 49.95264 6.92720 5025 ft 103 kts 197°
2026-04-30 18:34 49.94095 6.91634 5408 ft 67 kts 196°
2026-04-30 18:34 49.93842 6.91371 5194 ft 39 kts 103°
2026-04-30 18:35 49.94301 6.90307 3646 ft 155 kts 306°
2026-04-30 18:35 49.94707 6.88933 3708 ft 132 kts 280°
2026-04-30 18:35 49.95100 6.88013 3840 ft 93 kts 19°
2026-04-30 18:36 49.95589 6.89042 4191 ft 66 kts 99°
2026-04-30 18:36 49.95353 6.89670 4331 ft 70 kts 133°
2026-04-30 18:36 49.94167 6.89742 4385 ft 91 kts 167°
2026-04-30 18:37 49.93590 6.89942 4387 ft 80 kts 146°
2026-04-30 18:37 49.93127 6.90312 4464 ft 71 kts 131°
2026-04-30 18:37 49.92849 6.90956 4425 ft 70 kts 112°
2026-04-30 18:37 49.92672 6.91638 4518 ft 70 kts 89°
2026-04-30 18:38 49.93063 6.92323 4489 ft 99 kts 48°
2026-04-30 18:38 49.93616 6.92915 4526 ft 93 kts 51°
2026-04-30 18:38 49.94020 6.93574 4468 ft 77 kts 76°
2026-04-30 18:38 49.94054 6.94409 4333 ft 82 kts 105°
2026-04-30 18:39 49.93844 6.95268 4267 ft 87 kts 115°
2026-04-30 18:39 49.93544 6.96096 4165 ft 89 kts 118°
2026-04-30 18:39 49.93194 6.96919 4019 ft 92 kts 121°
2026-04-30 18:39 49.92815 6.97714 3907 ft 93 kts 124°
2026-04-30 18:40 49.92360 6.98501 3659 ft 101 kts 129°
2026-04-30 18:40 49.91905 6.99148 3784 ft 78 kts 131°
2026-04-30 18:40 49.91455 6.99711 3600 ft 86 kts 131°
2026-04-30 18:40 49.90989 7.00276 3477 ft 85 kts 134°
2026-04-30 18:41 49.90537 7.00819 3394 ft 78 kts 126°
2026-04-30 18:41 49.90270 7.01511 3303 ft 78 kts 107°
2026-04-30 18:41 49.90164 7.02341 3225 ft 78 kts 97°
2026-04-30 18:41 49.90159 7.03171 3329 ft 76 kts 92°
2026-04-30 18:42 49.90208 7.04000 3446 ft 77 kts 89°
2026-04-30 18:42 49.90335 7.05758 3386 ft 87 kts 88°
2026-04-30 18:42 49.90382 7.06684 3316 ft 82 kts 90°
2026-04-30 18:45 49.90565 7.13801 3597 ft 72 kts 104°
2026-04-30 18:45 49.90407 7.14539 3708 ft 74 kts 104°
2026-04-30 18:45 49.90238 7.15274 3887 ft 70 kts 107°
2026-04-30 18:46 49.90073 7.15994 3933 ft 71 kts 105°
2026-04-30 18:46 49.89921 7.16724 3973 ft 72 kts 103°
2026-04-30 18:46 49.89803 7.17516 3904 ft 78 kts 99°
2026-04-30 18:46 49.89747 7.18373 3823 ft 81 kts 96°
2026-04-30 18:47 49.89697 7.19245 3608 ft 82 kts 96°
2026-04-30 18:47 49.89706 7.20109 3443 ft 82 kts 86°
2026-04-30 18:47 49.89811 7.20999 3230 ft 86 kts 78°
2026-04-30 18:47 49.90165 7.21807 2995 ft 100 kts 54°
2026-04-30 18:48 49.90830 7.22360 2782 ft 108 kts 39°
2026-04-30 18:48 49.91432 7.22994 2458 ft 104 kts 49°
2026-04-30 18:48 49.92058 7.23636 2190 ft 113 kts 35°
2026-04-30 18:48 49.92668 7.24224 1889 ft 92 kts 40°
2026-04-30 18:49 49.93149 7.24692 1731 ft 72 kts 38°
2026-04-30 18:49 49.93492 7.25035 1638 ft 44 kts 41°
2026-04-30 18:49 49.93719 7.25261 1632 ft 42 kts 37°
2026-04-30 18:49 49.93954 7.25494 1625 ft 24 kts 52°
2026-04-30 18:50 49.93918 7.25599 1626 ft 10 kts 118°
2026-04-30 18:50 49.93885 7.25680 1627 ft 8 kts 122°
2026-04-30 18:50 49.93855 7.25748 1627 ft 9 kts 128°
2026-04-30 18:50 49.93817 7.25852 1628 ft 10 kts 91°
2026-04-30 18:51 49.93867 7.25923 1626 ft 11 kts 30°
2026-04-30 18:51 49.93932 7.25996 1624 ft 14 kts 36°
2026-04-30 18:51 49.94033 7.26097 1624 ft 21 kts 34°
2026-04-30 18:51 49.94170 7.26238 1624 ft 24 kts 38°
2026-04-30 18:52 49.94278 7.26417 1619 ft 20 kts 25°
2026-04-30 18:52 49.94317 7.26460 1615 ft 0 kts 119°
2026-04-30 18:53 49.94317 7.26459 1615 ft 0 kts 119°